CW6144 Weather Reports


Display with metric or nautical units.
time (UTC)temp
F
wind
direction
speed
MPH
gust
MPH
rain 1hr
in
rain 24hr
in
rain mn
in
humidity
%
barometer
mb
20260902090013 75 180 2.0 5.0 0.00 0.00 0.00 74 1020.0
20260902085503 75 200 1.0 6.0 0.00 0.00 0.00 74 1020.0
20260902085007 75 194 2.0 5.0 0.00 0.00 0.00 74 1020.0
20260902084519 75 206 2.0 4.0 0.00 0.00 0.00 74 1020.0
20260902084008 75 217 1.0 3.0 0.00 0.00 0.00 73 1020.0
20260902083514 76 253 1.0 3.0 0.00 0.00 0.00 73 1020.0
20260902083032 76 200 1.0 3.0 0.00 0.00 0.00 73 1019.9
20260902082512 76 194 0.0 5.0 0.00 0.00 0.00 72 1019.8
20260902082019 76 182 2.0 4.0 0.00 0.00 0.00 72 1019.8
20260902081530 76 175 2.0 4.0 0.00 0.00 0.00 72 1019.8
20260902081014 76 215 2.0 5.0 0.00 0.00 0.00 72 1019.8
20260902080516 76 183 2.0 5.0 0.00 0.00 0.00 72 1019.9
20260902080011 76 240 2.0 5.0 0.00 0.00 0.00 71 1019.9
20260902075505 77 234 2.0 6.0 0.00 0.00 0.00 71 1019.9
20260902075003 77 165 3.0 6.0 0.00 0.00 0.00 71 1020.0
20260902074515 77 194 1.0 7.0 0.00 0.00 0.00 70 1019.9
20260902074005 77 190 3.0 7.0 0.00 0.00 0.00 70 1019.9
20260902073507 77 153 3.0 7.0 0.00 0.00 0.00 70 1019.9
20260902073020 77 183 3.0 6.0 0.00 0.00 0.00 70 1019.9
20260902072510 77 213 2.0 7.0 0.00 0.00 0.00 69 1020.0
20260902072015 77 221 2.0 7.0 0.00 0.00 0.00 69 1020.0
20260902071530 77 243 3.0 7.0 0.00 0.00 0.00 69 1020.0
20260902071014 77 150 3.0 7.0 0.00 0.00 0.00 68 1020.1
20260902070513 77 169 3.0 7.0 0.00 0.00 0.00 68 1020.1
20260902070031 77 139 2.0 9.0 0.00 0.00 0.00 68 1020.1
20260902065515 77 174 4.0 9.0 0.00 0.00 0.00 68 1020.1
20260902065003 77 219 2.0 6.0 0.00 0.00 0.00 67 1020.1
20260902064522 78 211 3.0 6.0 0.00 0.00 0.00 67 1020.0
20260902064007 78 207 3.0 6.0 0.00 0.00 0.00 67 1020.1
20260902063510 78 224 2.0 5.0 0.00 0.00 0.00 66 1020.1
20260902063022 78 172 2.0 6.0 0.00 0.00 0.00 66 1020.1
20260902062508 78 187 3.0 9.0 0.00 0.00 0.00 65 1020.1
20260902062008 79 186 2.0 10.0 0.00 0.00 0.00 65 1020.1
20260902061529 79 167 3.0 10.0 0.00 0.00 0.00 65 1020.0
20260902061012 79 151 3.0 11.0 0.00 0.00 0.00 65 1020.0
20260902060511 79 218 3.0 11.0 0.00 0.00 0.00 65 1020.0
20260902060029 79 197 4.0 10.0 0.00 0.00 0.00 65 1020.1
20260902055518 79 165 3.0 8.0 0.00 0.00 0.00 65 1020.1
20260902055016 79 207 4.0 8.0 0.00 0.00 0.00 65 1020.0
20260902054534 79 161 3.0 9.0 0.00 0.00 0.00 66 1020.1
20260902054004 79 132 5.0 9.0 0.00 0.00 0.00 66 1020.1
20260902053505 78 188 3.0 8.0 0.00 0.00 0.00 66 1020.1
20260902053016 79 194 4.0 8.0 0.00 0.00 0.00 66 1020.0
20260902052507 79 149 3.0 7.0 0.00 0.00 0.00 65 1020.1
20260902052008 79 208 4.0 6.0 0.00 0.00 0.00 65 1020.0
20260902051535 79 204 3.0 9.0 0.00 0.00 0.00 65 1020.0
20260902051013 79 167 3.0 9.0 0.00 0.00 0.00 65 1020.0
20260902050514 79 155 3.0 8.0 0.00 0.00 0.00 64 1020.0
20260902050031 79 180 3.0 8.0 0.00 0.00 0.00 64 1019.9
20260902045517 79 190 3.0 8.0 0.00 0.00 0.00 64 1019.9
20260902045019 79 156 3.0 8.0 0.00 0.00 0.00 64 1019.9
20260902044531 79 155 2.0 7.0 0.00 0.00 0.00 64 1019.9
20260902044020 79 196 3.0 7.0 0.00 0.00 0.00 64 1019.9
20260902043513 79 173 2.0 6.0 0.00 0.00 0.00 63 1019.8
20260902043039 79 215 2.0 9.0 0.00 0.00 0.00 63 1019.9
20260902042518 80 202 3.0 9.0 0.00 0.00 0.00 63 1019.8
20260902042007 80 163 3.0 10.0 0.00 0.00 0.00 63 1019.8
20260902041540 80 166 5.0 10.0 0.00 0.00 0.00 63 1019.8
20260902041008 80 155 3.0 8.0 0.00 0.00 0.00 63 1019.8
20260902040509 80 201 2.0 7.0 0.00 0.00 0.00 63 1019.8
20260902040026 80 190 4.0 7.0 0.00 0.00 0.00 63 1019.8
20260902035512 80 191 4.0 8.0 0.00 0.00 0.00 62 1019.9
20260902035012 80 193 3.0 8.0 0.00 0.00 0.00 62 1019.8
20260902034530 81 182 3.0 8.0 0.00 0.00 0.00 62 1019.8
20260902034016 81 213 2.0 8.0 0.00 0.00 0.00 62 1019.7
20260902033514 81 168 3.0 10.0 0.00 0.00 0.00 62 1019.8
20260902033030 81 175 3.0 10.0 0.00 0.00 0.00 62 1019.8
20260902032516 81 193 4.0 9.0 0.00 0.00 0.00 62 1019.8
20260902032020 81 194 4.0 10.0 0.00 0.00 0.00 63 1019.8
20260902031536 81 172 3.0 10.0 0.00 0.00 0.00 63 1019.7
20260902031016 81 173 2.0 6.0 0.00 0.00 0.00 64 1019.6
20260902030510 81 214 2.0 7.0 0.00 0.00 0.00 64 1019.5
20260902030023 81 165 2.0 7.0 0.00 0.00 0.00 63 1019.5
20260902025503 81 200 2.0 8.0 0.00 0.00 0.00 63 1019.5
20260902025004 81 142 4.0 10.0 0.00 0.00 0.00 63 1019.5
20260902024505 81 184 5.0 10.0 0.00 0.00 0.00 63 1019.4
20260902024003 81 195 3.0 7.0 0.00 0.00 0.00 63 1019.3
20260902023516 81 133 3.0 7.0 0.00 0.00 0.00 63 1019.2
20260902023010 81 164 3.0 6.0 0.00 0.00 0.00 63 1019.2
20260902022506 81 194 3.0 6.0 0.00 0.00 0.00 63 1019.2
20260902022005 82 126 2.0 6.0 0.00 0.00 0.00 62 1019.1
20260902021512 82 165 1.0 7.0 0.00 0.00 0.00 62 1019.0
20260902021008 82 165 2.0 7.0 0.00 0.00 0.00 62 1019.0
20260902020507 82 188 3.0 8.0 0.00 0.00 0.00 62 1018.8
20260902020035 82 186 1.0 8.0 0.00 0.00 0.00 62 1018.9
20260902015510 82 210 3.0 9.0 0.00 0.00 0.00 62 1018.9
20260902015010 82 221 3.0 8.0 0.00 0.00 0.00 62 1018.9
20260902014528 82 242 1.0 8.0 0.00 0.00 0.00 62 1018.8
20260902014002 82 171 2.0 5.0 0.00 0.00 0.00 62 1018.7
20260902013502 82 186 2.0 6.0 0.00 0.00 0.00 62 1018.7
20260902013004 82 186 1.0 6.0 0.00 0.00 0.00 61 1018.7
20260902012503 82 209 3.0 6.0 0.00 0.00 0.00 61 1018.7
20260902012003 83 217 1.0 6.0 0.00 0.00 0.00 60 1018.8
20260902011513 83 223 2.0 6.0 0.00 0.00 0.00 60 1018.7
20260902011007 83 209 1.0 3.0 0.00 0.00 0.00 59 1018.7
20260902010507 84 214 1.0 5.0 0.00 0.00 0.00 58 1018.6
20260902010017 84 205 1.0 5.0 0.00 0.00 0.00 58 1018.6
20260902005516 84 193 1.0 5.0 0.00 0.00 0.00 57 1018.6
20260902005010 85 167 1.0 3.0 0.00 0.00 0.00 56 1018.6
20260902004533 85 192 1.0 4.0 0.00 0.00 0.00 56 1018.6
20260902004009 85 225 2.0 4.0 0.00 0.00 0.00 55 1018.6
20260902003514 86 192 1.0 5.0 0.00 0.00 0.00 54 1018.6
20260902003022 86 170 1.0 6.0 0.00 0.00 0.00 54 1018.6
20260902002502 87 171 3.0 7.0 0.00 0.00 0.00 53 1018.6
20260902002003 87 175 3.0 6.0 0.00 0.00 0.00 52 1018.6
20260902001508 87 168 3.0 6.0 0.00 0.00 0.00 51 1018.6
20260902001003 88 184 2.0 6.0 0.00 0.00 0.00 51 1018.7
20260902000503 88 176 2.0 5.0 0.00 0.00 0.00 50 1018.7
20260902000022 89 233 2.0 10.0 0.00 0.00 0.00 49 1018.8
20260901235519 90 259 3.0 10.0 0.00 0.00 0.00 48 1018.8
20260901235015 90 156 2.0 5.0 0.00 0.00 0.00 47 1018.9
20260901234523 90 198 1.0 7.0 0.00 0.00 0.00 46 1018.9
20260901234010 91 72 1.0 9.0 0.00 0.00 0.00 45 1018.9
20260901233510 91 236 2.0 9.0 0.00 0.00 0.00 44 1018.9
20260901233037 92 219 1.0 7.0 0.00 0.00 0.00 42 1019.0
20260901232518 92 178 3.0 7.0 0.00 0.00 0.00 41 1019.1
20260901232013 92 188 3.0 5.0 0.00 0.00 0.00 39 1019.1
20260901231507 92 169 2.0 5.0 0.00 0.00 0.00 38 1019.0
20260901231003 92 200 2.0 6.0 0.00 0.00 0.00 38 1019.0
20260901230503 93 281 2.0 8.0 0.00 0.00 0.00 38 1019.1
20260901230016 93 229 4.0 8.0 0.00 0.00 0.00 37 1019.1
20260901225508 93 205 1.0 9.0 0.00 0.00 0.00 37 1019.1
20260901225008 93 97 4.0 11.0 0.00 0.00 0.00 36 1018.9
20260901224521 93 163 3.0 11.0 0.00 0.00 0.00 36 1018.9
20260901224008 94 163 3.0 7.0 0.00 0.00 0.00 36 1018.9
20260901223511 94 94 3.0 7.0 0.00 0.00 0.00 35 1018.8
20260901223033 94 167 3.0 7.0 0.00 0.00 0.00 34 1018.8
20260901222514 95 100 1.0 7.0 0.00 0.00 0.00 35 1018.9
20260901222014 95 40 3.0 6.0 0.00 0.00 0.00 34 1019.0
20260901221538 94 202 3.0 7.0 0.00 0.00 0.00 1018.9
20260901221014 94 178 2.0 7.0 0.00 0.00 0.00 32 1019.0
20260901220514 94 294 1.0 8.0 0.00 0.00 0.00 32 1018.9
20260901220039 94 145 3.0 9.0 0.00 0.00 0.00 32 1018.9
20260901215503 94 156 5.0 10.0 0.00 0.00 0.00 32 1018.9
20260901215011 94 195 4.0 10.0 0.00 0.00 0.00 32 1018.8
20260901214516 94 191 3.0 12.0 0.00 0.00 0.00 33 1018.9
20260901214010 94 51 3.0 12.0 0.00 0.00 0.00 33 1018.9
20260901213509 95 61 3.0 10.0 0.00 0.00 0.00 34 1018.9
20260901213022 95 123 3.0 9.0 0.00 0.00 0.00 34 1018.9
20260901212516 95 206 4.0 14.0 0.00 0.00 0.00 36 1018.9
20260901212010 94 159 2.0 14.0 0.00 0.00 0.00 36 1018.9
20260901211533 94 108 4.0 14.0 0.00 0.00 0.00 38 1018.9
20260901211016 94 91 4.0 9.0 0.00 0.00 0.00 38 1018.9
20260901210519 94 72 3.0 9.0 0.00 0.00 0.00 38 1019.0
20260901210027 95 133 2.0 9.0 0.00 0.00 0.00 37 1019.1
20260901205516 94 153 4.0 9.0 0.00 0.00 0.00 37 1019.2
20260901205004 94 140 4.0 9.0 0.00 0.00 0.00 39 1019.2
20260901204514 94 197 4.0 10.0 0.00 0.00 0.00 39 1019.4
20260901204007 93 117 4.0 10.0 0.00 0.00 0.00 39 1019.4
20260901203511 92 65 3.0 10.0 0.00 0.00 0.00 41 1019.5
20260901203020 92 64 3.0 10.0 0.00 0.00 0.00 40 1019.5
20260901202510 93 142 4.0 10.0 0.00 0.00 0.00 40 1019.6
20260901202009 94 99 1.0 8.0 0.00 0.00 0.00 40 1019.6
20260901201523 94 78 4.0 8.0 0.00 0.00 0.00 40 1019.6
20260901201013 94 123 2.0 8.0 0.00 0.00 0.00 39 1019.6
20260901200513 94 168 2.0 10.0 0.00 0.00 0.00 38 1019.7
20260901200029 94 190 4.0 10.0 0.00 0.00 0.00 41 1019.7
20260901195516 93 199 3.0 10.0 0.00 0.00 0.00 41 1019.8
20260901195017 92 47 3.0 9.0 0.00 0.00 0.00 42 1019.8
20260901194533 92 17 3.0 9.0 0.00 0.00 0.00 41 1019.8
20260901194020 92 106 5.0 9.0 0.00 0.00 0.00 39 1019.8
20260901193506 92 100 3.0 10.0 0.00 0.00 0.00 40 1020.0
20260901193016 92 145 5.0 11.0 0.00 0.00 0.00 42 1020.0
20260901192511 91 113 3.0 11.0 0.00 0.00 0.00 42 1020.1
20260901192012 91 71 3.0 7.0 0.00 0.00 0.00 43 1020.2
20260901191534 90 82 2.0 7.0 0.00 0.00 0.00 44 1020.2
20260901191012 89 88 2.0 5.0 0.00 0.00 0.00 45 1020.3
20260901190514 89 36 2.0 6.0 0.00 0.00 0.00 44 1020.4
20260901190027 90 135 2.0 10.0 0.00 0.00 0.00 47 1020.4
20260901185512 89 144 5.0 10.0 0.00 0.00 0.00 47 1020.4
20260901185014 89 327 1.0 4.0 0.00 0.00 0.00 46 1020.6
20260901184531 89 104 1.0 3.0 0.00 0.00 0.00 47 1020.6
20260901184018 90 82 0.0 2.0 0.00 0.00 0.00 47 1020.7
20260901183518 90 309 0.0 4.0 0.00 0.00 0.00 46 1020.7
20260901183032 90 123 2.0 7.0 0.00 0.00 0.00 46 1020.8
20260901182516 91 73 3.0 8.0 0.00 0.00 0.00 46 1020.8
20260901182009 92 112 3.0 8.0 0.00 0.00 0.00 44 1020.9
20260901181521 92 157 3.0 7.0 0.00 0.00 0.00 45 1020.9
20260901181009 91 201 2.0 6.0 0.00 0.00 0.00 46 1021.0
20260901180512 91 61 0.0 10.0 0.00 0.00 0.00 46 1021.1
20260901180422 92 85 1.0 10.0 0.00 0.00 0.00 44 1021.3
20260901175504 93 187 5.0 9.0 0.00 0.00 0.00 44 1021.3
20260901175004 92 268 3.0 8.0 0.00 0.00 0.00 45 1021.4
20260901174505 91 230 2.0 6.0 0.00 0.00 0.00 46 1021.5
20260901174008 91 228 4.0 8.0 0.00 0.00 0.00 46 1021.6
20260901173504 91 241 3.0 10.0 0.00 0.00 0.00 45 1021.7
20260901173010 91 235 4.0 10.0 0.00 0.00 0.00 46 1021.7
20260901172510 92 211 4.0 10.0 0.00 0.00 0.00 46 1021.8
20260901172004 92 240 4.0 8.0 0.00 0.00 0.00 46 1021.7
20260901171512 90 170 3.0 8.0 0.00 0.00 0.00 47 1021.8
20260901171007 90 221 4.0 9.0 0.00 0.00 0.00 48 1021.9
20260901170506 90 292 4.0 9.0 0.00 0.00 0.00 48 1021.9
20260901170016 90 171 4.0 9.0 0.00 0.00 0.00 48 1022.0
20260901165507 91 228 5.0 9.0 0.00 0.00 0.00 48 1022.0
20260901165005 90 213 3.0 9.0 0.00 0.00 0.00 49 1022.1
20260901164510 89 225 2.0 7.0 0.00 0.00 0.00 53 1022.1
20260901164005 89 211 4.0 7.0 0.00 0.00 0.00 53 1022.1
20260901163506 89 183 2.0 7.0 0.00 0.00 0.00 51 1022.2
20260901163017 90 254 1.0 8.0 0.00 0.00 0.00 52 1022.2
20260901162510 89 140 3.0 8.0 0.00 0.00 0.00 53 1022.1
20260901162005 89 132 3.0 7.0 0.00 0.00 0.00 53 1022.1
20260901161520 89 189 2.0 8.0 0.00 0.00 0.00 54 1022.2
20260901161008 89 234 4.0 9.0 0.00 0.00 0.00 53 1022.2
20260901160509 89 157 5.0 11.0 0.00 0.00 0.00 53 1022.2
20260901160017 89 235 5.0 11.0 0.00 0.00 0.00 53 1022.1
20260901155509 88 202 2.0 8.0 0.00 0.00 0.00 54 1022.1
20260901155009 87 160 3.0 10.0 0.00 0.00 0.00 55 1022.2
20260901154533 87 153 5.0 10.0 0.00 0.00 0.00 54 1022.2
20260901154004 87 200 4.0 9.0 0.00 0.00 0.00 56 1022.1
20260901153505 87 203 3.0 9.0 0.00 0.00 0.00 57 1022.1
20260901153017 86 192 2.0 11.0 0.00 0.00 0.00 58 1022.1
20260901152501 85 194 4.0 13.0 0.00 0.00 0.00 58 1022.1
20260901152007 85 199 5.0 13.0 0.00 0.00 0.00 57 1022.1
20260901151514 85 129 5.0 11.0 0.00 0.00 0.00 58 1022.0
20260901151010 85 236 5.0 11.0 0.00 0.00 0.00 59 1022.0
20260901150505 85 223 4.0 12.0 0.00 0.00 0.00 60 1022.0
20260901150017 84 282 5.0 12.0 0.00 0.00 0.00 59 1022.1
20260901145511 84 217 5.0 11.0 0.00 0.00 0.00 59 1022.0
20260901145009 84 175 6.0 16.0 0.00 0.00 0.00 60 1022.0
20260901144521 84 234 4.0 16.0 0.00 0.00 0.00 61 1021.9
20260901144011 83 217 5.0 11.0 0.00 0.00 0.00 61 1021.9
20260901143509 83 206 3.0 11.0 0.00 0.00 0.00 62 1021.9
20260901143026 83 135 3.0 10.0 0.00 0.00 0.00 62 1021.9
20260901142503 82 218 5.0 10.0 0.00 0.00 0.00 62 1021.9
20260901142004 82 165 5.0 9.0 0.00 0.00 0.00 63 1021.9
20260901141513 82 201 4.0 10.0 0.00 0.00 0.00 63 1021.9
20260901141004 81 192 4.0 10.0 0.00 0.00 0.00 65 1022.0
20260901140507 81 168 4.0 8.0 0.00 0.00 0.00 65 1022.0
20260901140019 80 176 5.0 10.0 0.00 0.00 0.00 65 1022.0
20260901135507 80 188 4.0 10.0 0.00 0.00 0.00 66 1022.0
20260901135011 80 219 6.0 10.0 0.00 0.00 0.00 65 1022.0
20260901134525 80 262 5.0 9.0 0.00 0.00 0.00 66 1021.9
20260901134011 79 178 5.0 9.0 0.00 0.00 0.00 67 1022.0
20260901133509 79 234 3.0 9.0 0.00 0.00 0.00 68 1022.0
20260901133024 78 184 3.0 9.0 0.00 0.00 0.00 69 1021.9
20260901132512 78 196 3.0 8.0 0.00 0.00 0.00 68 1021.9
20260901132014 78 182 4.0 11.0 0.00 0.00 0.00 69 1021.9
20260901131527 78 184 6.0 11.0 0.00 0.00 0.00 69 1021.9
20260901131010 78 221 4.0 10.0 0.00 0.00 0.00 69 1021.8
20260901130504 77 166 3.0 7.0 0.00 0.00 0.00 70 1021.7
20260901130016 77 193 2.0 9.0 0.00 0.00 0.00 71 1021.6
20260901125508 77 190 3.0 9.0 0.00 0.00 0.00 71 1021.6
20260901125011 76 193 4.0 8.0 0.00 0.00 0.00 72 1021.6
20260901124517 76 229 3.0 10.0 0.00 0.00 0.00 72 1021.6
20260901124011 76 237 3.0 10.0 0.00 0.00 0.00 73 1021.5
20260901123512 76 223 3.0 6.0 0.00 0.00 0.00 74 1021.5
20260901123023 75 195 3.0 6.0 0.00 0.00 0.00 74 1021.4
20260901122515 75 174 3.0 6.0 0.00 0.00 0.00 74 1021.4
20260901122011 75 221 3.0 6.0 0.00 0.00 0.00 75 1021.4
20260901121535 75 242 3.0 5.0 0.00 0.00 0.00 75 1021.4
20260901121013 74 182 3.0 6.0 0.00 0.00 0.00 75 1021.3
20260901120511 74 184 3.0 6.0 0.00 0.00 0.00 75 1021.3
20260901120012 74 238 3.0 6.0 0.00 0.00 0.00 76 1021.2
20260901115505 74 202 2.0 6.0 0.00 0.00 0.00 76 1021.2
20260901115008 74 222 2.0 6.0 0.00 0.00 0.00 76 1021.2
20260901114522 74 190 3.0 6.0 0.00 0.00 0.00 76 1021.1
20260901114008 74 222 2.0 6.0 0.00 0.00 0.00 76 1021.1
20260901113512 74 187 1.0 5.0 0.00 0.00 0.00 76 1021.0
20260901113027 74 212 2.0 5.0 0.00 0.00 0.00 75 1020.9
20260901112503 74 212 2.0 6.0 0.00 0.00 0.00 75 1020.9
20260901112005 75 147 3.0 6.0 0.00 0.00 0.00 75 1020.9
20260901111510 75 213 3.0 6.0 0.00 0.00 0.00 75 1020.9
20260901111004 75 233 3.0 6.0 0.00 0.00 0.00 75 1020.9
20260901110504 75 263 2.0 6.0 0.00 0.00 0.00 74 1020.8
20260901110010 75 221 3.0 7.0 0.00 0.00 0.00 74 1020.8
20260901105506 75 207 2.0 7.0 0.00 0.00 0.00 74 1020.8
20260901105006 75 222 3.0 8.0 0.00 0.00 0.00 74 1020.7
20260901104531 75 236 3.0 8.0 0.00 0.00 0.00 75 1020.7
20260901104007 75 246 3.0 8.0 0.00 0.00 0.00 75 1020.7
20260901103510 74 221 3.0 8.0 0.00 0.00 0.00 76 1020.6
20260901103007 74 194 2.0 5.0 0.00 0.00 0.00 76 1020.6
20260901102502 74 224 3.0 5.0 0.00 0.00 0.00 76 1020.7
20260901102003 74 213 2.0 7.0 0.00 0.00 0.00 76 1020.6
20260901101510 74 248 3.0 7.0 0.00 0.00 0.00 77 1020.6
20260901101003 74 190 2.0 5.0 0.00 0.00 0.00 77 1020.6
20260901100503 74 198 2.0 5.0 0.00 0.00 0.00 77 1020.6
20260901100006 74 199 2.0 5.0 0.00 0.00 0.00 76 1020.6
20260901095504 74 196 2.0 5.0 0.00 0.00 0.00 76 1020.6
20260901095006 74 226 2.0 5.0 0.00 0.00 0.00 76 1020.6
20260901094521 74 159 2.0 4.0 0.00 0.00 0.00 76 1020.6
20260901094015 74 217 2.0 5.0 0.00 0.00 0.00 76 1020.6
20260901093507 74 184 2.0 6.0 0.00 0.00 0.00 76 1020.5
20260901093019 74 150 3.0 6.0 0.00 0.00 0.00 76 1020.5
20260901092511 74 217 2.0 5.0 0.00 0.00 0.00 76 1020.4
20260901092011 74 251 2.0 5.0 0.00 0.00 0.00 76 1020.4
20260901091533 74 205 2.0 5.0 0.00 0.00 0.00 76 1020.3
20260901091003 74 215 2.0 6.0 0.00 0.00 0.00 76 1020.3
20260901090503 74 166 2.0 6.0 0.00 0.00 0.00 76 1020.4